Flag for Central African Republic Weather past 2 weeks in Bimbo, Central African Republic

Now
75 °F

Thunderstorms. Passing clouds.


Feels Like: 74 °F
Forecast: 73 / 88 °F
Wind: 3 mph from Southwest

Location: Bangui Airport

Current Time: Sep 22, 2014 at 3:13:21 AM

Latest Report: Sep 22, 2014 at 2:00 AM


Visibility: 5 mi

Pressure: 29.89 "Hg

Humidity: 94%

Dew point: 73 °F

Location of BimboLocation

Historic Weather in Bimbo — Graph

°F

Bimbo temperature yesterday

Maximum temperature yesterday: 91 °F (at 3:00 PM)
Minimum temperature yesterday: 72 °F (at 5:00 AM)
Average temperature yesterday: 80 °F

Past Weeks' High & Low Weather Summary

 TemperatureHumidityPressure
High93 °F (Sep 20, 1:00 PM)100% (Sep 7, 2:00 AM)30.01 "Hg (Sep 7, 2:00 AM)
Low68 °F (Sep 10, 3:00 AM)44% (Sep 20, 1:00 PM)29.77 "Hg (Sep 11, 4:00 PM)
Average78 °F84%29.90 "Hg
* Reported Sep 7 2:00 AM — Sep 22 2:00 AM, Bimbo, Weather by CustomWeather, © 2014

Note: Actual official high and low records may vary slightly from our data, if they occured in-between our weather recording intervals... More about our weather records

Advertising

Bimbo weather history for previous 24 hours

 ConditionsComfort  
Time TempWeatherWind HumidityBarometerVisibility
2:00 AM
Sep 22
75 °FThunderstorms. Passing clouds.3 mph94%29.89 "Hg5 mi
1:00 AM75 °FThunderstorms. Passing clouds.No wind94%29.89 "Hg5 mi
12:00 AM75 °FThunderstorms. Passing clouds.No wind94%29.92 "Hg5 mi
11:00 PM
Sep 21
75 °FPassing clouds.No wind94%29.89 "Hg4 mi
10:00 PM77 °FPassing clouds.3 mph94%29.92 "Hg4 mi
9:00 PM79 °FThunderstorms. Passing clouds.2 mph89%29.89 "Hg4 mi
8:00 PM79 °FThunderstorms. Passing clouds.1 mph89%29.89 "Hg4 mi
7:00 PM79 °FThunderstorms. Passing clouds.5 mph84%29.83 "Hg4 mi
6:00 PM82 °FPassing clouds.3 mph70%29.80 "Hg4 mi
5:00 PM84 °FThunderstorms. Scattered clouds.2 mph66%29.80 "HgN/A
4:00 PM91 °FThunderstorms. Scattered clouds.2 mph52%29.80 "HgN/A
3:00 PM91 °FPartly sunny.5 mph56%29.80 "HgN/A
2:00 PM90 °FScattered clouds.3 mph59%29.83 "HgN/A
12:00 PM88 °FBroken clouds.5 mph62%29.89 "HgN/A
11:00 AM84 °FBroken clouds.7 mph79%29.92 "HgN/A
10:00 AM81 °FBroken clouds.5 mph79%29.95 "HgN/A
9:00 AM79 °FPartly sunny.No wind79%29.95 "HgN/A
8:00 AM77 °FPartly sunny.3 mph89%29.95 "HgN/A
7:00 AM73 °FScattered clouds.2 mph100%29.95 "HgN/A
6:00 AM72 °FPartly sunny.No wind100%29.92 "HgN/A
5:00 AM72 °FClear.No wind100%29.89 "Hg10 mi
Weather by CustomWeather, © 2014

See weather overviewHow to use our weather pages